Time,TemperatureF,DewpointF,PressureIn,WindDirection,WindDirectionDegrees,WindSpeedMPH,WindSpeedGustMPH,Humidity,HourlyPrecipIn,Conditions,Clouds,dailyrainin,SoftwareType,DateUTC
2013-04-19 00:01:00,48.2,46.8,30.24,SW,224,9.0,22.0,95,0.01,,,0.00,WUHU216DAVISVP2,2013-04-19 07:01:00,
2013-04-19 00:06:00,48.2,46.8,30.24,SE,139,7.0,21.0,95,0.01,,,0.00,WUHU216DAVISVP2,2013-04-19 07:06:00,
2013-04-19 00:11:00,48.2,46.8,30.24,SSW,203,6.0,21.0,95,0.01,,,0.00,WUHU216DAVISVP2,2013-04-19 07:11:00,
2013-04-19 00:16:00,48.2,46.8,30.23,SW,235,15.0,21.0,95,0.01,,,0.00,WUHU216DAVISVP2,2013-04-19 07:16:00,
2013-04-19 00:21:00,48.3,46.9,30.23,WSW,248,12.0,20.0,95,0.02,,,0.01,WUHU216DAVISVP2,2013-04-19 07:21:00,
2013-04-19 00:26:00,48.3,46.9,30.23,SSW,203,6.0,19.0,95,0.02,,,0.01,WUHU216DAVISVP2,2013-04-19 07:26:00,
2013-04-19 00:31:00,48.3,46.9,30.23,SSE,149,5.0,19.0,95,0.02,,,0.01,WUHU216DAVISVP2,2013-04-19 07:31:00,
2013-04-19 00:36:00,48.3,46.9,30.22,SE,141,9.0,24.0,95,0.02,,,0.01,WUHU216DAVISVP2,2013-04-19 07:36:00,
2013-04-19 00:41:00,48.3,46.9,30.22,SW,236,8.0,24.0,95,0.02,,,0.01,WUHU216DAVISVP2,2013-04-19 07:41:00,
2013-04-19 00:46:00,48.3,46.9,30.22,SSW,207,12.0,23.0,95,0.01,,,0.01,WUHU216DAVISVP2,2013-04-19 07:46:00,
2013-04-19 00:51:00,48.3,46.9,30.22,SW,225,6.0,23.0,95,0.01,,,0.01,WUHU216DAVISVP2,2013-04-19 07:51:00,
2013-04-19 00:56:00,48.3,46.9,30.22,SW,228,10.0,24.0,95,0.01,,,0.01,WUHU216DAVISVP2,2013-04-19 07:56:00,
2013-04-19 01:01:00,48.4,47.0,30.21,SW,219,20.0,24.0,95,0.01,,,0.01,WUHU216DAVISVP2,2013-04-19 08:01:00,
2013-04-19 01:06:00,48.4,46.7,30.21,WSW,252,10.0,24.0,94,0.01,,,0.01,WUHU216DAVISVP2,2013-04-19 08:06:00,
2013-04-19 01:11:00,48.4,46.8,30.20,WSW,249,15.0,30.0,94,0.01,,,0.01,WUHU216DAVISVP2,2013-04-19 08:11:00,
2013-04-19 01:16:00,48.5,46.9,30.20,WSW,241,18.0,30.0,94,0.01,,,0.01,WUHU216DAVISVP2,2013-04-19 08:16:00,
2013-04-19 01:21:00,48.5,46.9,30.20,SW,236,23.0,30.0,94,0.00,,,0.01,WUHU216DAVISVP2,2013-04-19 08:21:00,
2013-04-19 01:26:00,48.6,46.7,30.20,WSW,250,11.0,34.0,93,0.00,,,0.01,WUHU216DAVISVP2,2013-04-19 08:26:00,
2013-04-19 01:31:00,48.6,46.6,30.20,SW,215,7.0,34.0,93,0.00,,,0.01,WUHU216DAVISVP2,2013-04-19 08:31:00,
2013-04-19 01:36:00,48.6,46.7,30.20,WSW,252,18.0,33.0,93,0.00,,,0.01,WUHU216DAVISVP2,2013-04-19 08:36:00,
2013-04-19 01:41:00,48.5,46.6,30.20,SW,217,9.0,28.0,93,0.00,,,0.01,WUHU216DAVISVP2,2013-04-19 08:41:00,
2013-04-19 01:46:00,48.5,46.5,30.20,SW,227,20.0,30.0,93,0.00,,,0.01,WUHU216DAVISVP2,2013-04-19 08:46:00,
2013-04-19 01:51:00,48.5,46.5,30.20,WSW,238,20.0,30.0,93,0.00,,,0.01,WUHU216DAVISVP2,2013-04-19 08:51:00,
2013-04-19 01:56:00,48.6,46.6,30.20,WSW,249,15.0,30.0,93,0.00,,,0.01,WUHU216DAVISVP2,2013-04-19 08:56:00,
2013-04-19 02:01:00,48.6,46.6,30.20,WSW,245,13.0,30.0,93,0.00,,,0.01,WUHU216DAVISVP2,2013-04-19 09:01:00,
2013-04-19 02:06:00,48.6,46.6,30.19,WSW,238,12.0,26.0,93,0.00,,,0.01,WUHU216DAVISVP2,2013-04-19 09:06:00,
2013-04-19 02:11:00,48.6,46.6,30.20,SW,223,21.0,30.0,93,0.00,,,0.01,WUHU216DAVISVP2,2013-04-19 09:11:00,
2013-04-19 02:16:00,48.6,46.9,30.20,South,172,7.0,30.0,94,0.00,,,0.01,WUHU216DAVISVP2,2013-04-19 09:16:00,
2013-04-19 02:21:00,48.6,46.9,30.19,South,181,4.0,30.0,94,0.00,,,0.01,WUHU216DAVISVP2,2013-04-19 09:21:00,
2013-04-19 02:26:00,48.6,46.9,30.19,SW,218,13.0,29.0,94,0.00,,,0.01,WUHU216DAVISVP2,2013-04-19 09:26:00,
2013-04-19 02:31:00,48.5,46.8,30.19,West,264,17.0,25.0,94,0.00,,,0.01,WUHU216DAVISVP2,2013-04-19 09:31:00,
2013-04-19 02:36:00,48.5,46.8,30.18,WSW,248,11.0,25.0,94,0.00,,,0.01,WUHU216DAVISVP2,2013-04-19 09:36:00,
2013-04-19 02:41:00,48.5,46.8,30.18,SSW,203,4.0,23.0,94,0.00,,,0.01,WUHU216DAVISVP2,2013-04-19 09:41:00,
2013-04-19 02:46:00,48.5,46.8,30.18,WSW,248,8.0,22.0,94,0.00,,,0.01,WUHU216DAVISVP2,2013-04-19 09:46:00,
2013-04-19 02:51:00,48.5,46.8,30.18,WSW,242,7.0,22.0,94,0.00,,,0.01,WUHU216DAVISVP2,2013-04-19 09:51:00,
2013-04-19 02:56:00,48.5,47.1,30.17,SW,218,8.0,20.0,95,0.00,,,0.01,WUHU216DAVISVP2,2013-04-19 09:56:00,
2013-04-19 03:01:00,48.5,47.1,30.17,SW,225,11.0,19.0,95,0.00,,,0.01,WUHU216DAVISVP2,2013-04-19 10:01:00,
2013-04-19 03:06:00,48.5,47.1,30.17,SW,235,6.0,20.0,95,0.00,,,0.01,WUHU216DAVISVP2,2013-04-19 10:06:00,
2013-04-19 03:11:00,48.5,47.1,30.17,WSW,242,4.0,20.0,95,0.00,,,0.01,WUHU216DAVISVP2,2013-04-19 10:11:00,
2013-04-19 03:16:00,48.5,47.1,30.16,South,188,5.0,20.0,95,0.00,,,0.01,WUHU216DAVISVP2,2013-04-19 10:16:00,
2013-04-19 03:21:00,48.5,47.1,30.16,SW,235,14.0,21.0,95,0.00,,,0.01,WUHU216DAVISVP2,2013-04-19 10:21:00,
2013-04-19 03:26:00,48.6,46.9,30.16,WSW,243,8.0,22.0,94,0.00,,,0.01,WUHU216DAVISVP2,2013-04-19 10:26:00,
2013-04-19 03:31:00,48.7,47.0,30.16,SW,219,6.0,23.0,94,0.00,,,0.01,WUHU216DAVISVP2,2013-04-19 10:31:00,
2013-04-19 03:36:00,48.9,46.9,30.15,SW,228,17.0,28.0,93,0.00,,,0.01,WUHU216DAVISVP2,2013-04-19 10:36:00,
2013-04-19 03:41:00,48.9,46.9,30.15,WSW,238,22.0,28.0,93,0.00,,,0.01,WUHU216DAVISVP2,2013-04-19 10:41:00,
2013-04-19 03:45:00,48.9,46.9,30.15,SW,219,22.0,27.0,93,0.00,,,0.01,WUHU216DAVISVP2,2013-04-19 10:45:00,
2013-04-19 03:50:00,48.9,46.9,30.14,SW,222,14.0,27.0,93,0.00,,,0.01,WUHU216DAVISVP2,2013-04-19 10:50:00,
2013-04-19 03:55:00,48.9,46.9,30.14,SSE,163,20.0,26.0,93,0.00,,,0.01,WUHU216DAVISVP2,2013-04-19 10:55:00,
2013-04-19 04:00:00,48.8,46.8,30.14,SSW,203,13.0,26.0,93,0.00,,,0.01,WUHU216DAVISVP2,2013-04-19 11:00:00,
2013-04-19 04:05:00,48.9,46.9,30.14,SW,231,6.0,26.0,93,0.00,,,0.01,WUHU216DAVISVP2,2013-04-19 11:05:00,
2013-04-19 04:10:00,48.9,47.0,30.15,WSW,238,11.0,26.0,93,0.00,,,0.01,WUHU216DAVISVP2,2013-04-19 11:10:00,
2013-04-19 04:15:00,48.8,46.9,30.14,WSW,247,15.0,25.0,93,0.00,,,0.01,WUHU216DAVISVP2,2013-04-19 11:15:00,
2013-04-19 04:20:00,48.8,46.9,30.14,WSW,239,12.0,24.0,93,0.00,,,0.01,WUHU216DAVISVP2,2013-04-19 11:20:00,
2013-04-19 04:25:00,48.7,47.1,30.14,WSW,253,13.0,23.0,94,0.00,,,0.01,WUHU216DAVISVP2,2013-04-19 11:25:00,
2013-04-19 04:30:00,48.7,47.1,30.14,South,187,5.0,21.0,94,0.00,,,0.01,WUHU216DAVISVP2,2013-04-19 11:30:00,
2013-04-19 04:35:00,48.7,47.0,30.14,SW,221,12.0,19.0,94,0.00,,,0.01,WUHU216DAVISVP2,2013-04-19 11:35:00,
2013-04-19 04:40:00,48.6,47.0,30.14,SW,218,10.0,22.0,94,0.00,,,0.01,WUHU216DAVISVP2,2013-04-19 11:40:00,
2013-04-19 04:45:00,48.5,47.1,30.14,SW,226,16.0,22.0,95,0.00,,,0.01,WUHU216DAVISVP2,2013-04-19 11:45:00,
2013-04-19 04:50:00,48.5,47.1,30.14,SW,221,9.0,21.0,95,0.00,,,0.01,WUHU216DAVISVP2,2013-04-19 11:50:00,
2013-04-19 04:55:00,48.5,47.1,30.14,SSW,211,12.0,21.0,95,0.00,,,0.01,WUHU216DAVISVP2,2013-04-19 11:55:00,
2013-04-19 05:00:00,48.5,47.1,30.14,SSW,211,10.0,20.0,95,0.00,,,0.01,WUHU216DAVISVP2,2013-04-19 12:00:00,
2013-04-19 05:05:00,48.6,46.9,30.14,SW,232,11.0,19.0,94,0.00,,,0.01,WUHU216DAVISVP2,2013-04-19 12:05:00,
2013-04-19 05:10:00,48.6,46.9,30.14,SSW,207,6.0,16.0,94,0.00,,,0.01,WUHU216DAVISVP2,2013-04-19 12:10:00,
2013-04-19 05:15:00,48.7,47.0,30.14,SSW,193,8.0,16.0,94,0.00,,,0.01,WUHU216DAVISVP2,2013-04-19 12:15:00,
2013-04-19 05:20:00,48.7,47.0,30.13,WSW,242,3.0,16.0,94,0.00,,,0.01,WUHU216DAVISVP2,2013-04-19 12:20:00,
2013-04-19 05:25:00,48.8,47.1,30.13,South,181,8.0,16.0,94,0.00,,,0.01,WUHU216DAVISVP2,2013-04-19 12:25:00,
2013-04-19 05:30:00,48.8,47.1,30.13,SSW,203,8.0,16.0,94,0.00,,,0.01,WUHU216DAVISVP2,2013-04-19 12:30:00,
2013-04-19 05:35:00,48.9,46.9,30.13,West,260,6.0,16.0,93,0.00,,,0.01,WUHU216DAVISVP2,2013-04-19 12:35:00,
2013-04-19 05:40:00,48.9,46.9,30.13,SW,224,13.0,19.0,93,0.00,,,0.01,WUHU216DAVISVP2,2013-04-19 12:40:00,
2013-04-19 05:45:00,49.0,47.0,30.12,West,271,7.0,20.0,93,0.00,,,0.01,WUHU216DAVISVP2,2013-04-19 12:45:00,
2013-04-19 05:50:00,49.0,47.1,30.12,SW,218,7.0,20.0,93,0.00,,,0.01,WUHU216DAVISVP2,2013-04-19 12:50:00,
2013-04-19 05:55:00,49.0,47.0,30.12,SW,225,12.0,19.0,93,0.00,,,0.01,WUHU216DAVISVP2,2013-04-19 12:55:00,
2013-04-19 06:00:00,49.1,47.1,30.12,WSW,243,9.0,19.0,93,0.00,,,0.01,WUHU216DAVISVP2,2013-04-19 13:00:00,
2013-04-19 06:05:00,49.1,47.1,30.12,SSW,210,14.0,19.0,93,0.00,,,0.01,WUHU216DAVISVP2,2013-04-19 13:05:00,
2013-04-19 06:10:00,49.1,47.1,30.12,SW,216,8.0,19.0,93,0.00,,,0.01,WUHU216DAVISVP2,2013-04-19 13:10:00,
2013-04-19 06:15:00,49.1,46.8,30.12,South,186,8.0,19.0,92,0.00,,,0.01,WUHU216DAVISVP2,2013-04-19 13:15:00,
2013-04-19 06:20:00,49.1,46.8,30.12,WSW,253,11.0,20.0,92,0.00,,,0.01,WUHU216DAVISVP2,2013-04-19 13:20:00,
2013-04-19 06:25:00,49.1,47.1,30.12,SW,232,11.0,20.0,93,0.00,,,0.01,WUHU216DAVISVP2,2013-04-19 13:25:00,
2013-04-19 06:30:00,49.1,47.1,30.12,SW,231,11.0,20.0,93,0.00,,,0.01,WUHU216DAVISVP2,2013-04-19 13:30:00,
2013-04-19 06:35:00,49.1,47.1,30.12,SSW,209,3.0,20.0,93,0.00,,,0.01,WUHU216DAVISVP2,2013-04-19 13:35:00,
2013-04-19 06:40:00,49.1,47.1,30.11,WNW,288,11.0,15.0,93,0.00,,,0.01,WUHU216DAVISVP2,2013-04-19 13:40:00,
2013-04-19 06:45:00,49.1,47.1,30.11,South,173,5.0,15.0,93,0.00,,,0.01,WUHU216DAVISVP2,2013-04-19 13:45:00,
2013-04-19 06:50:00,49.1,47.1,30.11,SW,236,9.0,17.0,93,0.00,,,0.01,WUHU216DAVISVP2,2013-04-19 13:50:00,
2013-04-19 06:55:00,49.1,47.1,30.11,SSW,212,6.0,17.0,93,0.00,,,0.01,WUHU216DAVISVP2,2013-04-19 13:55:00,
2013-04-19 07:00:00,49.1,47.2,30.11,SW,231,8.0,17.0,93,0.00,,,0.01,WUHU216DAVISVP2,2013-04-19 14:00:00,
2013-04-19 07:05:00,49.1,47.1,30.11,SSW,208,20.0,20.0,93,0.00,,,0.01,WUHU216DAVISVP2,2013-04-19 14:05:00,
2013-04-19 07:10:00,49.1,47.1,30.11,SW,221,7.0,20.0,93,0.00,,,0.01,WUHU216DAVISVP2,2013-04-19 14:10:00,
2013-04-19 07:15:00,49.1,47.1,30.11,South,186,12.0,20.0,93,0.00,,,0.01,WUHU216DAVISVP2,2013-04-19 14:15:00,
2013-04-19 07:20:00,49.1,47.1,30.11,SSW,205,6.0,20.0,93,0.00,,,0.01,WUHU216DAVISVP2,2013-04-19 14:20:00,
2013-04-19 07:25:00,49.0,47.0,30.11,SW,219,5.0,16.0,93,0.00,,,0.01,WUHU216DAVISVP2,2013-04-19 14:25:00,
2013-04-19 07:30:00,48.9,47.2,30.11,SSW,200,7.0,16.0,94,0.00,,,0.01,WUHU216DAVISVP2,2013-04-19 14:30:00,
2013-04-19 07:35:00,48.9,47.2,30.11,SSW,207,5.0,16.0,94,0.01,,,0.02,WUHU216DAVISVP2,2013-04-19 14:35:00,
2013-04-19 07:40:00,48.8,47.1,30.10,NW,314,2.0,16.0,94,0.01,,,0.02,WUHU216DAVISVP2,2013-04-19 14:40:00,
2013-04-19 07:45:00,48.8,47.1,30.10,SSE,153,2.0,12.0,94,0.01,,,0.02,WUHU216DAVISVP2,2013-04-19 14:45:00,
2013-04-19 07:50:00,48.8,47.1,30.10,SSW,207,4.0,13.0,94,0.01,,,0.02,WUHU216DAVISVP2,2013-04-19 14:50:00,
2013-04-19 07:55:00,48.8,47.1,30.10,SW,234,7.0,13.0,94,0.02,,,0.03,WUHU216DAVISVP2,2013-04-19 14:55:00,
2013-04-19 08:00:00,48.9,47.5,30.10,SW,236,0.0,13.0,95,0.02,,,0.03,WUHU216DAVISVP2,2013-04-19 15:00:00,
2013-04-19 08:05:00,48.9,47.5,30.10,SW,216,7.0,13.0,95,0.02,,,0.03,WUHU216DAVISVP2,2013-04-19 15:05:00,
2013-04-19 08:10:00,48.9,47.5,30.10,South,191,4.0,13.0,95,0.03,,,0.04,WUHU216DAVISVP2,2013-04-19 15:10:00,
2013-04-19 08:15:00,48.9,47.5,30.10,WSW,238,5.0,12.0,95,0.03,,,0.04,WUHU216DAVISVP2,2013-04-19 15:15:00,
2013-04-19 08:20:00,48.9,47.5,30.10,West,278,2.0,12.0,95,0.04,,,0.05,WUHU216DAVISVP2,2013-04-19 15:20:00,
2013-04-19 08:25:00,48.9,47.5,30.10,SSW,200,3.0,12.0,95,0.04,,,0.05,WUHU216DAVISVP2,2013-04-19 15:25:00,
2013-04-19 08:30:00,48.9,47.5,30.10,SW,221,13.0,13.0,95,0.05,,,0.06,WUHU216DAVISVP2,2013-04-19 15:30:00,
2013-04-19 08:35:00,48.9,47.5,30.10,SSW,204,6.0,13.0,95,0.04,,,0.06,WUHU216DAVISVP2,2013-04-19 15:35:00,
2013-04-19 08:40:00,48.9,47.5,30.10,South,183,5.0,13.0,95,0.04,,,0.06,WUHU216DAVISVP2,2013-04-19 15:40:00,
2013-04-19 08:45:00,48.9,47.5,30.10,WSW,249,3.0,13.0,95,0.04,,,0.06,WUHU216DAVISVP2,2013-04-19 15:45:00,
2013-04-19 08:50:00,48.9,47.5,30.10,SW,221,9.0,13.0,95,0.05,,,0.07,WUHU216DAVISVP2,2013-04-19 15:50:00,
2013-04-19 08:55:00,48.9,47.5,30.10,South,191,6.0,14.0,95,0.04,,,0.07,WUHU216DAVISVP2,2013-04-19 15:55:00,
2013-04-19 09:00:00,48.9,47.5,30.10,WSW,245,6.0,14.0,95,0.04,,,0.07,WUHU216DAVISVP2,2013-04-19 16:00:00,
2013-04-19 09:05:00,48.9,47.5,30.10,WNW,293,4.0,14.0,95,0.04,,,0.07,WUHU216DAVISVP2,2013-04-19 16:05:00,
2013-04-19 09:10:00,48.9,47.5,30.10,WSW,238,4.0,14.0,95,0.04,,,0.08,WUHU216DAVISVP2,2013-04-19 16:10:00,
2013-04-19 09:15:00,48.9,47.5,30.10,WSW,257,5.0,14.0,95,0.04,,,0.08,WUHU216DAVISVP2,2013-04-19 16:15:00,
2013-04-19 09:20:00,48.9,47.5,30.10,SW,231,5.0,13.0,95,0.04,,,0.09,WUHU216DAVISVP2,2013-04-19 16:20:00,
2013-04-19 09:25:00,48.9,47.5,30.10,SSW,203,4.0,13.0,95,0.04,,,0.09,WUHU216DAVISVP2,2013-04-19 16:25:00,
2013-04-19 09:30:00,48.9,47.5,30.10,SW,225,6.0,13.0,95,0.04,,,0.10,WUHU216DAVISVP2,2013-04-19 16:30:00,
2013-04-19 09:35:00,48.9,47.5,30.10,SSW,193,5.0,15.0,95,0.04,,,0.10,WUHU216DAVISVP2,2013-04-19 16:35:00,
2013-04-19 09:40:00,48.9,47.5,30.10,SW,225,9.0,15.0,95,0.05,,,0.11,WUHU216DAVISVP2,2013-04-19 16:40:00,
2013-04-19 09:45:00,49.0,47.6,30.10,SSW,208,7.0,15.0,95,0.05,,,0.11,WUHU216DAVISVP2,2013-04-19 16:45:00,
2013-04-19 09:50:00,48.9,47.5,30.10,SW,236,7.0,15.0,95,0.05,,,0.12,WUHU216DAVISVP2,2013-04-19 16:50:00,
2013-04-19 09:55:00,49.0,47.9,30.10,SW,225,5.0,14.0,96,0.05,,,0.12,WUHU216DAVISVP2,2013-04-19 16:55:00,
2013-04-19 10:00:00,49.0,47.9,30.10,WSW,246,7.0,13.0,96,0.06,,,0.13,WUHU216DAVISVP2,2013-04-19 17:00:00,
2013-04-19 10:05:00,49.0,47.9,30.10,South,187,8.0,12.0,96,0.07,,,0.14,WUHU216DAVISVP2,2013-04-19 17:05:00,
2013-04-19 10:10:00,49.0,47.9,30.10,SSW,207,5.0,12.0,96,0.06,,,0.14,WUHU216DAVISVP2,2013-04-19 17:10:00,
2013-04-19 10:15:00,48.9,47.8,30.11,WSW,238,4.0,12.0,96,0.07,,,0.15,WUHU216DAVISVP2,2013-04-19 17:15:00,
2013-04-19 10:20:00,49.0,47.9,30.11,SSW,202,4.0,11.0,96,0.06,,,0.15,WUHU216DAVISVP2,2013-04-19 17:20:00,
2013-04-19 10:25:00,49.0,47.9,30.11,WSW,252,6.0,9.0,96,0.07,,,0.16,WUHU216DAVISVP2,2013-04-19 17:25:00,
2013-04-19 10:30:00,49.0,47.9,30.11,SW,221,6.0,9.0,96,0.07,,,0.17,WUHU216DAVISVP2,2013-04-19 17:30:00,
2013-04-19 10:35:00,49.0,47.9,30.11,SSW,210,6.0,11.0,96,0.07,,,0.17,WUHU216DAVISVP2,2013-04-19 17:35:00,
2013-04-19 10:40:00,49.1,48.0,30.11,WSW,245,7.0,11.0,96,0.07,,,0.18,WUHU216DAVISVP2,2013-04-19 17:40:00,
2013-04-19 10:45:00,49.1,48.0,30.11,WSW,247,3.0,11.0,96,0.07,,,0.18,WUHU216DAVISVP2,2013-04-19 17:45:00,
2013-04-19 10:50:00,49.2,48.1,30.11,SW,229,4.0,11.0,96,0.07,,,0.19,WUHU216DAVISVP2,2013-04-19 17:50:00,
2013-04-19 10:55:00,49.3,48.2,30.11,SW,225,4.0,10.0,96,0.08,,,0.20,WUHU216DAVISVP2,2013-04-19 17:55:00,
2013-04-19 11:00:00,49.2,48.1,30.11,SW,221,4.0,11.0,96,0.07,,,0.20,WUHU216DAVISVP2,2013-04-19 18:00:00,
2013-04-19 11:05:00,49.3,48.2,30.12,SW,221,5.0,11.0,96,0.07,,,0.21,WUHU216DAVISVP2,2013-04-19 18:05:00,
2013-04-19 11:10:00,49.4,48.3,30.12,SW,232,5.0,11.0,96,0.07,,,0.21,WUHU216DAVISVP2,2013-04-19 18:10:00,
2013-04-19 11:15:00,49.5,48.4,30.12,WSW,242,7.0,11.0,96,0.06,,,0.21,WUHU216DAVISVP2,2013-04-19 18:15:00,
2013-04-19 11:20:00,49.5,48.4,30.12,WSW,239,2.0,11.0,96,0.06,,,0.22,WUHU216DAVISVP2,2013-04-19 18:20:00,
2013-04-19 11:25:00,49.5,48.4,30.12,SW,225,4.0,11.0,96,0.06,,,0.22,WUHU216DAVISVP2,2013-04-19 18:25:00,
2013-04-19 11:30:00,49.5,48.4,30.12,WSW,238,4.0,10.0,96,0.05,,,0.22,WUHU216DAVISVP2,2013-04-19 18:30:00,
2013-04-19 11:35:00,49.5,48.4,30.12,SSW,201,3.0,10.0,96,0.05,,,0.22,WUHU216DAVISVP2,2013-04-19 18:35:00,
2013-04-19 11:40:00,49.5,48.4,30.12,SW,235,3.0,10.0,96,0.05,,,0.23,WUHU216DAVISVP2,2013-04-19 18:40:00,
2013-04-19 11:45:00,49.7,48.6,30.12,SW,225,6.0,10.0,96,0.05,,,0.23,WUHU216DAVISVP2,2013-04-19 18:45:00,
2013-04-19 11:50:00,49.9,48.8,30.12,WSW,252,3.0,10.0,96,0.05,,,0.24,WUHU216DAVISVP2,2013-04-19 18:50:00,
2013-04-19 11:55:00,50.0,48.9,30.13,SSW,203,5.0,10.0,96,0.04,,,0.24,WUHU216DAVISVP2,2013-04-19 18:55:00,
2013-04-19 12:00:00,50.0,48.9,30.13,WSW,245,5.0,9.0,96,0.05,,,0.25,WUHU216DAVISVP2,2013-04-19 19:00:00,
2013-04-19 12:05:00,50.1,49.0,30.13,West,263,12.0,12.0,96,0.04,,,0.25,WUHU216DAVISVP2,2013-04-19 19:05:00,
2013-04-19 12:10:00,50.1,49.0,30.13,WSW,252,7.0,12.0,96,0.05,,,0.26,WUHU216DAVISVP2,2013-04-19 19:10:00,
2013-04-19 12:15:00,50.3,49.2,30.13,WSW,238,5.0,12.0,96,0.05,,,0.26,WUHU216DAVISVP2,2013-04-19 19:15:00,
2013-04-19 12:20:00,50.6,49.5,30.13,SW,231,0.0,12.0,96,0.05,,,0.26,WUHU216DAVISVP2,2013-04-19 19:20:00,
2013-04-19 12:25:00,50.7,49.6,30.13,SW,221,4.0,8.0,96,0.04,,,0.26,WUHU216DAVISVP2,2013-04-19 19:25:00,
2013-04-19 12:30:00,50.8,49.7,30.13,SW,216,5.0,12.0,96,0.04,,,0.26,WUHU216DAVISVP2,2013-04-19 19:30:00,
2013-04-19 12:35:00,50.8,49.4,30.13,SW,219,2.0,12.0,95,0.04,,,0.26,WUHU216DAVISVP2,2013-04-19 19:35:00,
2013-04-19 12:40:00,50.8,49.4,30.13,WSW,239,5.0,11.0,95,0.03,,,0.26,WUHU216DAVISVP2,2013-04-19 19:40:00,
2013-04-19 12:45:00,50.8,49.4,30.13,WNW,298,3.0,11.0,95,0.03,,,0.26,WUHU216DAVISVP2,2013-04-19 19:45:00,
2013-04-19 12:50:00,50.9,49.5,30.13,WSW,246,2.0,10.0,95,0.03,,,0.27,WUHU216DAVISVP2,2013-04-19 19:50:00,
2013-04-19 12:55:00,51.0,49.6,30.14,SW,231,3.0,9.0,95,0.03,,,0.27,WUHU216DAVISVP2,2013-04-19 19:55:00,
2013-04-19 13:00:00,51.0,49.6,30.13,WSW,247,2.0,9.0,95,0.02,,,0.27,WUHU216DAVISVP2,2013-04-19 20:00:00,
2013-04-19 13:05:00,51.3,50.2,30.13,SW,224,4.0,7.0,96,0.02,,,0.27,WUHU216DAVISVP2,2013-04-19 20:05:00,
2013-04-19 13:10:00,51.4,50.0,30.13,West,264,3.0,9.0,95,0.01,,,0.27,WUHU216DAVISVP2,2013-04-19 20:10:00,
2013-04-19 13:15:00,51.7,50.6,30.13,SW,221,5.0,9.0,96,0.01,,,0.27,WUHU216DAVISVP2,2013-04-19 20:15:00,
2013-04-19 13:20:00,51.8,50.4,30.13,SW,233,4.0,9.0,95,0.01,,,0.27,WUHU216DAVISVP2,2013-04-19 20:20:00,
2013-04-19 13:25:00,51.8,50.4,30.14,SW,222,8.0,9.0,95,0.01,,,0.27,WUHU216DAVISVP2,2013-04-19 20:25:00,
2013-04-19 13:30:00,51.8,50.4,30.14,WSW,241,4.0,9.0,95,0.01,,,0.27,WUHU216DAVISVP2,2013-04-19 20:30:00,
2013-04-19 13:35:00,52.0,50.6,30.14,WSW,250,1.0,9.0,95,0.01,,,0.27,WUHU216DAVISVP2,2013-04-19 20:35:00,
2013-04-19 13:40:00,52.2,50.8,30.14,WSW,239,5.0,9.0,95,0.01,,,0.27,WUHU216DAVISVP2,2013-04-19 20:40:00,
2013-04-19 13:45:00,52.0,50.3,30.14,WSW,249,5.0,9.0,94,0.02,,,0.28,WUHU216DAVISVP2,2013-04-19 20:45:00,
2013-04-19 13:50:00,51.7,50.0,30.14,SW,222,5.0,9.0,94,0.01,,,0.28,WUHU216DAVISVP2,2013-04-19 20:50:00,
2013-04-19 13:55:00,51.8,50.4,30.14,SSW,212,1.0,9.0,95,0.01,,,0.28,WUHU216DAVISVP2,2013-04-19 20:55:00,
2013-04-19 14:00:00,52.1,50.7,30.14,SSW,204,0.0,9.0,95,0.01,,,0.28,WUHU216DAVISVP2,2013-04-19 21:00:00,
2013-04-19 14:05:00,52.8,51.7,30.14,SW,236,1.0,7.0,96,0.02,,,0.29,WUHU216DAVISVP2,2013-04-19 21:05:00,
2013-04-19 14:10:00,52.8,51.4,30.14,SW,223,0.0,6.0,95,0.02,,,0.29,WUHU216DAVISVP2,2013-04-19 21:10:00,
2013-04-19 14:15:00,52.7,51.0,30.14,SW,232,4.0,5.0,94,0.02,,,0.29,WUHU216DAVISVP2,2013-04-19 21:15:00,
2013-04-19 14:20:00,52.3,50.6,30.14,SW,217,5.0,7.0,94,0.02,,,0.29,WUHU216DAVISVP2,2013-04-19 21:20:00,
2013-04-19 14:25:00,52.2,50.5,30.14,SW,219,4.0,7.0,94,0.02,,,0.29,WUHU216DAVISVP2,2013-04-19 21:25:00,
2013-04-19 14:30:00,52.4,51.0,30.15,North,349,0.0,6.0,95,0.03,,,0.30,WUHU216DAVISVP2,2013-04-19 21:30:00,
2013-04-19 14:35:00,52.4,51.0,30.15,ENE,61,0.0,6.0,95,0.03,,,0.30,WUHU216DAVISVP2,2013-04-19 21:35:00,
2013-04-19 14:40:00,52.5,51.1,30.15,North,359,1.0,6.0,95,0.03,,,0.30,WUHU216DAVISVP2,2013-04-19 21:40:00,
2013-04-19 14:45:00,52.3,50.6,30.15,NNW,347,0.0,3.0,94,0.02,,,0.30,WUHU216DAVISVP2,2013-04-19 21:45:00,
2013-04-19 14:50:00,52.2,50.8,30.15,NE,39,0.0,3.0,95,0.02,,,0.30,WUHU216DAVISVP2,2013-04-19 21:50:00,
2013-04-19 14:55:00,52.3,50.9,30.15,NNE,15,0.0,2.0,95,0.02,,,0.30,WUHU216DAVISVP2,2013-04-19 21:55:00,
2013-04-19 15:00:00,52.2,50.5,30.15,NNE,25,0.0,2.0,94,0.02,,,0.30,WUHU216DAVISVP2,2013-04-19 22:00:00,
2013-04-19 15:05:00,51.8,50.1,30.15,NE,41,0.0,2.0,94,0.01,,,0.30,WUHU216DAVISVP2,2013-04-19 22:05:00,
2013-04-19 15:10:00,51.4,49.7,30.15,North,358,0.0,3.0,94,0.01,,,0.30,WUHU216DAVISVP2,2013-04-19 22:10:00,
2013-04-19 15:15:00,51.5,49.8,30.15,NNE,28,2.0,3.0,94,0.01,,,0.30,WUHU216DAVISVP2,2013-04-19 22:15:00,
2013-04-19 15:20:00,51.5,49.5,30.15,North,10,0.0,3.0,93,0.01,,,0.30,WUHU216DAVISVP2,2013-04-19 22:20:00,
2013-04-19 15:25:00,51.7,49.7,30.15,North,353,3.0,4.0,93,0.01,,,0.30,WUHU216DAVISVP2,2013-04-19 22:25:00,
2013-04-19 15:30:00,51.7,49.7,30.15,NW,314,1.0,4.0,93,0.00,,,0.30,WUHU216DAVISVP2,2013-04-19 22:30:00,
2013-04-19 15:35:00,51.8,49.8,30.15,ESE,116,0.0,4.0,93,0.00,,,0.30,WUHU216DAVISVP2,2013-04-19 22:35:00,
2013-04-19 15:40:00,51.8,49.5,30.15,North,352,3.0,4.0,92,0.00,,,0.30,WUHU216DAVISVP2,2013-04-19 22:40:00,
2013-04-19 15:45:00,51.8,49.5,30.15,NW,316,2.0,6.0,92,0.00,,,0.30,WUHU216DAVISVP2,2013-04-19 22:45:00,
2013-04-19 15:50:00,52.0,49.7,30.15,North,8,0.0,6.0,92,0.00,,,0.30,WUHU216DAVISVP2,2013-04-19 22:50:00,
2013-04-19 15:55:00,52.3,50.0,30.15,North,4,1.0,5.0,92,0.00,,,0.30,WUHU216DAVISVP2,2013-04-19 22:55:00,
2013-04-19 16:00:00,52.3,50.3,30.15,North,352,0.0,5.0,93,0.00,,,0.30,WUHU216DAVISVP2,2013-04-19 23:00:00,
2013-04-19 16:05:00,52.4,50.1,30.15,NNE,32,0.0,3.0,92,0.00,,,0.30,WUHU216DAVISVP2,2013-04-19 23:05:00,
2013-04-19 16:10:00,52.4,50.4,30.15,NE,34,0.0,2.0,93,0.00,,,0.30,WUHU216DAVISVP2,2013-04-19 23:10:00,
2013-04-19 16:15:00,52.6,50.3,30.15,NE,39,0.0,1.0,92,0.00,,,0.30,WUHU216DAVISVP2,2013-04-19 23:15:00,
2013-04-19 16:20:00,52.7,50.7,30.15,SW,221,0.0,1.0,93,0.00,,,0.30,WUHU216DAVISVP2,2013-04-19 23:20:00,
2013-04-19 16:25:00,52.6,50.0,30.16,North,5,0.0,3.0,91,0.00,,,0.30,WUHU216DAVISVP2,2013-04-19 23:25:00,
2013-04-19 16:30:00,52.9,50.6,30.16,North,8,0.0,3.0,92,0.00,,,0.30,WUHU216DAVISVP2,2013-04-19 23:30:00,
2013-04-19 16:35:00,52.7,50.1,30.16,North,8,0.0,2.0,91,0.00,,,0.30,WUHU216DAVISVP2,2013-04-19 23:35:00,
2013-04-19 16:40:00,52.8,50.5,30.16,NNE,18,0.0,2.0,92,0.01,,,0.31,WUHU216DAVISVP2,2013-04-19 23:40:00,
2013-04-19 16:45:00,52.9,50.6,30.16,NNE,18,0.0,1.0,92,0.01,,,0.31,WUHU216DAVISVP2,2013-04-19 23:45:00,
2013-04-19 16:50:00,52.9,50.6,30.16,WNW,303,0.0,1.0,92,0.01,,,0.31,WUHU216DAVISVP2,2013-04-19 23:50:00,
2013-04-19 16:55:00,52.5,50.2,30.16,NNE,12,0.0,1.0,92,0.02,,,0.32,WUHU216DAVISVP2,2013-04-19 23:55:00,
2013-04-19 17:00:00,52.2,49.9,30.16,North,1,0.0,2.0,92,0.03,,,0.33,WUHU216DAVISVP2,2013-04-20 00:00:00,
2013-04-19 17:05:00,51.8,49.8,30.16,North,11,2.0,5.0,93,0.03,,,0.33,WUHU216DAVISVP2,2013-04-20 00:05:00,
2013-04-19 17:10:00,51.4,49.4,30.16,NNW,342,0.0,6.0,93,0.03,,,0.33,WUHU216DAVISVP2,2013-04-20 00:10:00,
2013-04-19 17:15:00,51.2,49.5,30.15,North,357,3.0,8.0,94,0.04,,,0.34,WUHU216DAVISVP2,2013-04-20 00:15:00,
2013-04-19 17:20:00,51.3,49.9,30.16,NNE,12,1.0,8.0,95,0.04,,,0.34,WUHU216DAVISVP2,2013-04-20 00:20:00,
2013-04-19 17:25:00,51.3,49.9,30.15,ENE,73,2.0,7.0,95,0.05,,,0.35,WUHU216DAVISVP2,2013-04-20 00:25:00,
2013-04-19 17:30:00,51.3,49.9,30.15,ENE,69,2.0,8.0,95,0.06,,,0.36,WUHU216DAVISVP2,2013-04-20 00:30:00,
2013-04-19 17:35:00,51.1,49.7,30.15,North,352,2.0,8.0,95,0.07,,,0.37,WUHU216DAVISVP2,2013-04-20 00:35:00,
2013-04-19 17:40:00,50.9,49.5,30.16,NE,35,1.0,7.0,95,0.06,,,0.37,WUHU216DAVISVP2,2013-04-20 00:40:00,
2013-04-19 17:45:00,50.8,49.4,30.16,NNW,345,3.0,7.0,95,0.07,,,0.38,WUHU216DAVISVP2,2013-04-20 00:45:00,
2013-04-19 17:50:00,50.8,49.4,30.16,North,5,1.0,6.0,95,0.08,,,0.39,WUHU216DAVISVP2,2013-04-20 00:50:00,
2013-04-19 17:55:00,50.8,49.4,30.16,NNW,330,2.0,5.0,95,0.07,,,0.39,WUHU216DAVISVP2,2013-04-20 00:55:00,
2013-04-19 18:00:00,50.6,49.2,30.16,NNW,338,3.0,5.0,95,0.06,,,0.39,WUHU216DAVISVP2,2013-04-20 01:00:00,
2013-04-19 18:05:00,50.6,49.2,30.16,ESE,110,0.0,5.0,95,0.07,,,0.40,WUHU216DAVISVP2,2013-04-20 01:05:00,
2013-04-19 18:10:00,50.6,49.2,30.16,North,8,1.0,4.0,95,0.07,,,0.40,WUHU216DAVISVP2,2013-04-20 01:10:00,
2013-04-19 18:15:00,50.4,49.0,30.17,NNE,16,0.0,3.0,95,0.06,,,0.40,WUHU216DAVISVP2,2013-04-20 01:15:00,
2013-04-19 18:20:00,50.4,49.0,30.17,North,1,0.0,2.0,95,0.07,,,0.41,WUHU216DAVISVP2,2013-04-20 01:20:00,
2013-04-19 18:25:00,50.4,49.0,30.17,North,6,0.0,2.0,95,0.07,,,0.42,WUHU216DAVISVP2,2013-04-20 01:25:00,
2013-04-19 18:30:00,50.4,49.0,30.17,NNE,14,1.0,4.0,95,0.08,,,0.44,WUHU216DAVISVP2,2013-04-20 01:30:00,
2013-04-19 18:35:00,50.2,48.8,30.17,North,1,3.0,5.0,95,0.08,,,0.45,WUHU216DAVISVP2,2013-04-20 01:35:00,
2013-04-19 18:40:00,50.3,49.2,30.17,NNW,333,3.0,6.0,96,0.09,,,0.46,WUHU216DAVISVP2,2013-04-20 01:40:00,
2013-04-19 18:45:00,50.2,49.1,30.17,NNE,33,2.0,6.0,96,0.08,,,0.47,WUHU216DAVISVP2,2013-04-20 01:45:00,
2013-04-19 18:50:00,50.1,49.0,30.17,East,79,1.0,6.0,96,0.08,,,0.47,WUHU216DAVISVP2,2013-04-20 01:50:00,
2013-04-19 18:55:00,50.1,49.0,30.17,East,99,0.0,6.0,96,0.09,,,0.48,WUHU216DAVISVP2,2013-04-20 01:55:00,
2013-04-19 19:00:00,50.1,49.0,30.18,SW,222,1.0,5.0,96,0.09,,,0.48,WUHU216DAVISVP2,2013-04-20 02:00:00,
2013-04-19 19:05:00,50.1,49.0,30.18,SW,219,0.0,3.0,96,0.09,,,0.49,WUHU216DAVISVP2,2013-04-20 02:05:00,
2013-04-19 19:10:00,50.2,49.1,30.17,SW,223,0.0,3.0,96,0.09,,,0.49,WUHU216DAVISVP2,2013-04-20 02:10:00,
2013-04-19 19:15:00,50.1,49.0,30.17,North,354,0.0,3.0,96,0.09,,,0.49,WUHU216DAVISVP2,2013-04-20 02:15:00,
2013-04-19 19:20:00,50.1,49.0,30.18,NNW,342,0.0,2.0,96,0.08,,,0.49,WUHU216DAVISVP2,2013-04-20 02:20:00,
2013-04-19 19:25:00,50.2,49.1,30.18,ESE,107,0.0,2.0,96,0.08,,,0.50,WUHU216DAVISVP2,2013-04-20 02:25:00,
2013-04-19 19:30:00,50.3,49.2,30.18,ESE,108,0.0,1.0,96,0.06,,,0.50,WUHU216DAVISVP2,2013-04-20 02:30:00,
2013-04-19 19:35:00,50.3,49.2,30.18,ESE,108,0.0,1.0,96,0.05,,,0.50,WUHU216DAVISVP2,2013-04-20 02:35:00,
2013-04-19 19:40:00,50.2,49.1,30.18,ENE,75,0.0,1.0,96,0.04,,,0.50,WUHU216DAVISVP2,2013-04-20 02:40:00,
2013-04-19 19:45:00,50.3,49.2,30.18,ESE,105,1.0,1.0,96,0.04,,,0.50,WUHU216DAVISVP2,2013-04-20 02:45:00,
2013-04-19 19:50:00,50.4,49.3,30.18,ENE,61,3.0,3.0,96,0.03,,,0.50,WUHU216DAVISVP2,2013-04-20 02:50:00,
2013-04-19 19:55:00,50.4,49.3,30.18,NE,50,1.0,3.0,96,0.02,,,0.50,WUHU216DAVISVP2,2013-04-20 02:55:00,
2013-04-19 20:00:00,50.3,49.2,30.18,ENE,65,1.0,5.0,96,0.02,,,0.50,WUHU216DAVISVP2,2013-04-20 03:00:00,
2013-04-19 20:05:00,50.3,49.2,30.18,East,86,2.0,5.0,96,0.01,,,0.50,WUHU216DAVISVP2,2013-04-20 03:05:00,
2013-04-19 20:10:00,50.3,49.2,30.18,ESE,112,1.0,4.0,96,0.01,,,0.50,WUHU216DAVISVP2,2013-04-20 03:10:00,
2013-04-19 20:15:00,50.3,49.2,30.19,ENE,61,1.0,4.0,96,0.01,,,0.50,WUHU216DAVISVP2,2013-04-20 03:15:00,
2013-04-19 20:20:00,50.3,49.2,30.19,East,98,2.0,3.0,96,0.01,,,0.50,WUHU216DAVISVP2,2013-04-20 03:20:00,
2013-04-19 20:25:00,50.1,49.0,30.19,East,82,4.0,5.0,96,0.00,,,0.50,WUHU216DAVISVP2,2013-04-20 03:25:00,
2013-04-19 20:30:00,49.9,48.8,30.19,ENE,60,2.0,5.0,96,0.00,,,0.50,WUHU216DAVISVP2,2013-04-20 03:30:00,
2013-04-19 20:35:00,49.9,48.8,30.19,ENE,65,2.0,5.0,96,0.00,,,0.50,WUHU216DAVISVP2,2013-04-20 03:35:00,
2013-04-19 20:40:00,49.9,48.8,30.20,NE,46,2.0,5.0,96,0.00,,,0.50,WUHU216DAVISVP2,2013-04-20 03:40:00,
2013-04-19 20:45:00,49.8,48.7,30.20,East,98,0.0,4.0,96,0.00,,,0.50,WUHU216DAVISVP2,2013-04-20 03:45:00,
2013-04-19 20:50:00,49.7,48.6,30.20,East,82,1.0,4.0,96,0.00,,,0.50,WUHU216DAVISVP2,2013-04-20 03:50:00,
2013-04-19 20:55:00,49.7,48.6,30.20,East,82,2.0,4.0,96,0.00,,,0.50,WUHU216DAVISVP2,2013-04-20 03:55:00,
2013-04-19 21:00:00,49.7,48.6,30.20,ENE,75,2.0,4.0,96,0.00,,,0.50,WUHU216DAVISVP2,2013-04-20 04:00:00,
2013-04-19 21:01:00,49.7,48.6,30.20,ENE,75,2.0,4.0,96,0.00,,,0.50,WUHU216DAVISVP2,2013-04-20 04:01:00,
2013-04-19 21:06:00,49.7,48.6,30.20,East,88,3.0,7.0,96,0.00,,,0.50,WUHU216DAVISVP2,2013-04-20 04:06:00,
2013-04-19 21:11:00,49.7,48.6,30.20,SSW,203,2.0,7.0,96,0.00,,,0.50,WUHU216DAVISVP2,2013-04-20 04:11:00,
2013-04-19 21:16:00,49.5,48.4,30.20,North,5,2.0,7.0,96,0.00,,,0.50,WUHU216DAVISVP2,2013-04-20 04:16:00,
2013-04-19 21:21:00,49.4,48.3,30.20,ESE,118,0.0,7.0,96,0.00,,,0.50,WUHU216DAVISVP2,2013-04-20 04:21:00,
2013-04-19 21:26:00,49.3,48.2,30.20,ENE,63,1.0,5.0,96,0.00,,,0.50,WUHU216DAVISVP2,2013-04-20 04:26:00,
2013-04-19 21:31:00,49.3,48.2,30.21,SSE,158,1.0,4.0,96,0.01,,,0.51,WUHU216DAVISVP2,2013-04-20 04:31:00,
2013-04-19 21:36:00,49.3,48.5,30.21,SE,136,2.0,4.0,97,0.01,,,0.51,WUHU216DAVISVP2,2013-04-20 04:36:00,
2013-04-19 21:41:00,49.4,48.6,30.21,SSW,205,2.0,3.0,97,0.01,,,0.51,WUHU216DAVISVP2,2013-04-20 04:41:00,
2013-04-19 21:46:00,49.3,48.5,30.21,SW,221,0.0,6.0,97,0.01,,,0.51,WUHU216DAVISVP2,2013-04-20 04:46:00,
2013-04-19 21:51:00,49.1,48.0,30.21,WSW,238,5.0,10.0,96,0.01,,,0.51,WUHU216DAVISVP2,2013-04-20 04:51:00,
2013-04-19 21:56:00,48.8,47.7,30.21,SW,224,3.0,10.0,96,0.01,,,0.51,WUHU216DAVISVP2,2013-04-20 04:56:00,
2013-04-19 22:01:00,48.7,47.3,30.21,SSW,201,2.0,10.0,95,0.01,,,0.51,WUHU216DAVISVP2,2013-04-20 05:01:00,
2013-04-19 22:06:00,48.7,47.3,30.21,SSW,210,2.0,9.0,95,0.01,,,0.51,WUHU216DAVISVP2,2013-04-20 05:06:00,
2013-04-19 22:11:00,48.6,47.2,30.21,SW,233,4.0,8.0,95,0.01,,,0.51,WUHU216DAVISVP2,2013-04-20 05:11:00,
2013-04-19 22:16:00,48.5,46.8,30.22,WSW,251,5.0,10.0,94,0.01,,,0.51,WUHU216DAVISVP2,2013-04-20 05:16:00,
2013-04-19 22:21:00,48.4,46.7,30.22,WSW,252,5.0,10.0,94,0.01,,,0.51,WUHU216DAVISVP2,2013-04-20 05:21:00,
2013-04-19 22:26:00,48.3,46.9,30.22,SW,235,6.0,9.0,95,0.01,,,0.51,WUHU216DAVISVP2,2013-04-20 05:26:00,
2013-04-19 22:31:00,48.1,46.7,30.22,SW,224,6.0,9.0,95,0.00,,,0.51,WUHU216DAVISVP2,2013-04-20 05:31:00,
2013-04-19 22:36:00,48.0,46.6,30.22,South,186,2.0,10.0,95,0.00,,,0.51,WUHU216DAVISVP2,2013-04-20 05:36:00,
2013-04-19 22:41:00,47.9,46.5,30.23,West,259,3.0,11.0,95,0.00,,,0.51,WUHU216DAVISVP2,2013-04-20 05:41:00,
2013-04-19 22:46:00,47.8,46.4,30.23,SW,236,4.0,11.0,95,0.00,,,0.51,WUHU216DAVISVP2,2013-04-20 05:46:00,
2013-04-19 22:51:00,47.7,46.3,30.23,SW,217,3.0,11.0,95,0.00,,,0.51,WUHU216DAVISVP2,2013-04-20 05:51:00,
2013-04-19 22:56:00,47.7,46.3,30.23,SSW,212,4.0,10.0,95,0.00,,,0.51,WUHU216DAVISVP2,2013-04-20 05:56:00,
2013-04-19 23:01:00,47.7,46.3,30.23,SW,216,1.0,6.0,95,0.00,,,0.51,WUHU216DAVISVP2,2013-04-20 06:01:00,
2013-04-19 23:06:00,47.6,46.2,30.23,South,187,2.0,6.0,95,0.00,,,0.51,WUHU216DAVISVP2,2013-04-20 06:06:00,
2013-04-19 23:11:00,47.5,46.4,30.23,SSW,212,0.0,6.0,96,0.00,,,0.51,WUHU216DAVISVP2,2013-04-20 06:11:00,
2013-04-19 23:16:00,47.5,46.4,30.23,South,170,2.0,7.0,96,0.00,,,0.51,WUHU216DAVISVP2,2013-04-20 06:16:00,
2013-04-19 23:21:00,47.5,46.4,30.23,SE,146,2.0,7.0,96,0.00,,,0.51,WUHU216DAVISVP2,2013-04-20 06:21:00,
2013-04-19 23:26:00,47.4,46.3,30.23,East,96,2.0,7.0,96,0.00,,,0.51,WUHU216DAVISVP2,2013-04-20 06:26:00,
2013-04-19 23:31:00,47.3,46.2,30.23,SSE,160,2.0,7.0,96,0.00,,,0.51,WUHU216DAVISVP2,2013-04-20 06:31:00,
2013-04-19 23:36:00,47.2,46.1,30.23,SSE,158,5.0,7.0,96,0.00,,,0.51,WUHU216DAVISVP2,2013-04-20 06:36:00,
2013-04-19 23:41:00,47.2,46.1,30.23,WSW,248,5.0,7.0,96,0.00,,,0.51,WUHU216DAVISVP2,2013-04-20 06:41:00,
2013-04-19 23:46:00,47.1,46.0,30.23,West,267,4.0,10.0,96,0.00,,,0.51,WUHU216DAVISVP2,2013-04-20 06:46:00,
2013-04-19 23:51:00,47.1,46.0,30.23,SSW,207,2.0,10.0,96,0.00,,,0.51,WUHU216DAVISVP2,2013-04-20 06:51:00,
2013-04-19 23:56:00,47.0,45.9,30.23,West,273,3.0,11.0,96,0.00,,,0.51,WUHU216DAVISVP2,2013-04-20 06:56:00,